Temp
5 5 5 5 5 5 5 5 5 5 4 4 4 5 5 5 6 6 6 7 7 7 7 7 7 7 8 8 8 8 8 8 8 8 8 8 8 8 8 8 8 8 8 8 8 8 8 8 8 8 8 8 8 8 8 8 8 8 8 9 9 9 9 9 10 10 10 10 10
5 5 5 5 5 5 5 5 5 5 5 4 4 5 5 5 6 6 6 6 7 7 7 7 7 7 7 7 8 8 8 8 8 8 8 8 8 8 8 8 8 8 8 8 8 8 8 8 8 8 8 8 8 8 8 8 8 8 8 8 8 9 9 9 9 9 10 10 10
5 5 5 5 5 5 5 5 5 5 5 5 5 5 5 5 5 6 6 6 6 6 7 7 7 7 7 7 7 7 8 8 8 8 8 8 8 8 8 8 8 8 8 8 8 8 8 8 8 8 7 8 8 8 8 8 8 8 8 8 8 8 9 9 9 9 9 9 10
5 5 5 5 5 5 5 5 5 5 5 5 5 5 5 5 5 5 5 6 6 6 6 7 7 7 7 7 7 7 7 7 8 8 8 8 8 8 8 8 8 8 8 8 8 8 8 8 8 8 7 7 7 7 8 8 8 8 8 8 8 8 8 8 9 9 9 9 9
4 5 5 5 5 5 5 5 5 5 5 5 5 5 5 5 5 5 5 5 5 6 6 6 6 6 7 7 7 7 7 7 7 8 8 8 8 8 8 8 8 8 8 8 8 8 8 8 8 8 7 7 7 7 7 7 8 8 8 8 8 8 8 8 8 9 9 9 9
4 4 4 5 5 5 5 5 5 5 5 5 5 5 5 5 5 5 5 5 5 5 5 6 6 6 6 6 6 7 7 7 7 7 7 8 8 8 8 8 8 8 8 8 8 8 8 8 8 8 8 7 7 7 7 7 8 8 8 8 8 8 8 8 8 8 9 9 9
3 3 4 4 4 5 5 5 5 5 6 6 6 6 6 6 6 6 6 6 6 6 6 6 6 6 6 6 6 6 6 7 7 7 7 7 7 7 8 8 8 8 8 8 8 8 8 8 8 8 8 8 7 7 7 8 8 7 7 7 7 8 8 8 8 8 8 9 9
3 3 3 4 4 4 4 5 5 5 5 5 6 6 6 6 6 6 6 6 6 6 6 6 6 6 6 6 6 6 6 6 7 7 7 7 7 7 7 7 7 7 8 8 8 8 8 8 8 8 8 8 8 7 7 7 8 8 8 8 7 7 7 8 8 8 8 8 8
3 3 3 3 4 4 4 4 4 4 4 5 5 5 5 5 5 6 6 6 6 6 6 6 6 6 6 6 6 6 6 6 6 6 6 7 7 7 7 7 7 7 7 7 7 8 8 8 8 8 8 8 8 8 8 8 8 8 8 8 7 7 7 7 8 8 8 8 8
3 3 3 3 3 3 3 3 3 4 4 4 4 4 4 5 5 5 5 5 5 6 6 6 6 6 6 6 6 6 6 6 6 6 6 6 6 6 7 7 7 7 7 7 7 7 7 7 8 8 8 8 8 8 8 8 8 8 8 7 7 7 7 7 7 7 8 8 8
2 3 3 3 3 3 3 3 3 3 3 3 4 4 4 4 4 4 4 5 5 5 5 5 6 6 6 6 6 6 6 6 6 6 7 7 7 6 6 6 7 7 7 7 7 7 7 7 7 7 7 7 8 8 8 8 8 8 7 7 7 7 7 7 7 7 7 7 8
2 3 3 3 3 3 3 3 3 3 3 3 3 3 3 4 4 4 4 4 4 5 5 5 5 5 5 5 6 6 6 6 6 6 6 6 7 7 7 7 7 6 6 6 7 7 7 7 7 7 7 7 7 7 7 8 8 7 7 7 7 7 7 7 7 7 7 7 7
3 3 3 3 3 3 3 3 3 3 3 3 3 3 3 3 3 3 3 3 3 4 4 4 4 4 4 4 5 5 5 6 6 6 6 6 6 7 7 7 7 7 7 6 6 6 6 7 7 7 7 7 7 7 7 7 7 7 7 7 7 7 7 7 7 7 7 7 7
3 3 4 4 4 4 4 4 3 3 3 3 3 3 3 3 3 3 3 3 3 3 3 3 3 3 3 4 4 4 5 5 6 6 6 6 6 6 6 7 7 7 7 7 7 7 7 7 7 7 7 7 7 7 7 7 7 7 7 7 7 7 7 7 7 7 8 8 8
4 4 4 4 4 4 4 4 4 4 3 3 3 3 3 3 3 3 3 3 3 3 3 3 3 3 3 3 4 4 4 5 5 5 6 6 6 6 6 6 6 6 7 7 7 7 7 7 7 7 7 7 7 7 7 7 7 7 7 7 7 6 7 7 7 7 7 8 8
4 4 4 4 4 4 4 4 4 4 4 4 3 3 3 3 3 3 3 3 3 3 3 3 3 3 3 3 3 4 4 4 4 5 5 5 5 5 6 6 6 6 6 6 6 6 6 7 7 7 7 7 7 7 7 7 7 7 7 7 6 6 6 7 7 7 7 7 8
4 4 4 4 4 4 4 4 4 4 4 4 4 4 3 3 3 3 3 3 3 3 3 3 3 3 3 3 4 4 4 4 4 4 4 5 5 5 5 5 5 6 6 6 6 6 6 6 6 6 6 7 7 7 7 7 7 7 7 7 6 6 6 6 7 7 7 7 7
4 4 4 4 4 4 4 4 4 4 4 4 4 4 4 4 4 4 3 3 3 3 3 3 3 3 3 3 4 4 4 4 4 5 5 5 5 5 5 5 5 5 5 5 5 5 5 5 5 5 6 6 6 6 7 7 7 7 6 6 7 7 7 6 7 7 7 7 7
5 5 5 5 4 4 4 4 4 4 4 4 4 4 4 4 4 4 4 4 3 3 3 3 3 3 3 3 4 4 4 4 4 4 4 4 4 4 4 4 4 4 4 4 4 5 5 5 5 5 5 5 5 5 5 6 6 7 7 7 7 7 7 7 7 7 7 7 7
5 5 5 5 5 4 4 4 4 4 4 4 4 4 4 4 4 4 4 3 3 3 3 3 3 3 3 3 3 3 3 3 3 3 3 3 3 3 4 4 4 4 4 4 4 4 4 4 4 4 5 4 4 5 5 5 5 6 6 7 7 7 7 7 7 7 7 7 7
5 5 5 5 5 5 4 4 4 4 4 4 4 4 4 4 4 4 3 3 3 3 3 3 3 2 2 2 2 2 2 2 2 2 2 2 2 3 3 3 3 3 3 4 4 4 4 4 4 4 4 4 4 4 4 5 5 5 5 6 6 7 7 7 7 7 7 7 7
4 4 4 4 5 5 5 4 4 4 4 4 4 4 4 4 4 4 3 3 3 3 3 3 2 2 2 1 1 2 2 2 2 2 2 2 2 2 2 2 3 3 3 3 3 3 3 4 4 4 4 4 4 4 4 4 5 5 5 5 6 6 7 7 7 7 7 7 7
4 4 4 4 4 4 4 4 5 5 5 5 5 5 4 4 4 4 4 3 3 3 3 3 3 2 2 1 1 1 1 1 1 1 2 2 2 2 2 2 2 2 2 3 3 2 2 3 3 3 3 3 3 4 4 4 4 5 5 5 5 6 6 7 7 7 7 7 7
3 3 3 4 4 4 4 4 4 5 5 5 5 5 5 4 4 4 4 4 3 3 3 3 3 2 2 2 1 1 1 1 1 1 1 1 1 1 2 2 2 2 2 2 2 2 1 1 1 1 2 2 2 3 3 3 4 4 4 5 5 5 6 6 7 7 7 7 7
3 3 3 3 3 3 4 4 4 4 4 4 4 4 4 4 4 4 4 4 3 3 3 3 2 2 2 2 1 1 1 1 1 1 1 1 1 1 1 1 1 1 2 2 1 1 1 1 0 0 1 1 1 2 2 3 3 3 4 4 4 4 5 6 6 7 7 7 7
2 3 3 3 3 3 3 3 3 3 3 3 4 4 4 4 4 4 4 4 3 3 3 3 2 2 2 1 1 1 1 1 1 1 1 1 1 1 1 1 1 1 1 1 1 1 1 1 0 0 0 0 0 1 1 2 2 2 3 3 3 4 4 5 6 6 7 7 7
2 3 3 3 3 3 3 3 3 3 3 3 3 3 3 3 3 3 3 3 3 3 3 2 2 2 1 1 0 0 0 -0 -0 -0 -0 -0 0 1 1 1 1 1 1 1 1 1 1 1 0 0 0 -0 -0 0 1 1 2 2 2 2 3 3 3 4 4 5 7 7 7
3 3 3 3 3 3 3 3 3 3 3 3 2 2 3 3 3 3 3 3 2 2 2 2 1 1 0 -0 -0 -1 -1 -1 -1 -1 -1 -1 -1 -1 -1 -0 -0 0 1 1 1 1 1 0 0 0 0 -0 -0 -0 0 1 1 1 1 2 2 2 3 3 4 4 4 5 7
3 3 3 3 3 3 3 3 2 2 2 2 2 2 2 2 2 2 2 2 2 1 1 0 -0 -0 -1 -1 -2 -2 -1 -1 -1 -1 -1 -1 -1 -1 -1 -1 -1 -1 -1 -0 -0 -0 -0 -0 0 0 0 0 -0 -0 -0 0 0 1 1 1 1 2 2 3 3 4 4 4 5
2 2 2 2 2 2 2 2 1 1 1 1 1 1 1 2 1 1 1 1 1 0 -1 -1 -1 -1 -2 -2 -3 -3 -3 -3 -2 -2 -2 -2 -2 -2 -2 -2 -2 -2 -2 -2 -1 -1 -1 -1 -1 -0 -0 0 0 -0 -0 -0 0 0 0 1 1 1 2 2 3 3 4 4 5
1 0 0 0 -0 -0 -0 -1 -1 -1 -0 -0 -0 0 1 0 -0 -0 -1 -1 -1 -1 -1 -1 -1 -1 -2 -2 -3 -3 -3 -3 -3 -3 -3 -3 -2 -2 -2 -2 -2 -2 -2 -2 -2 -2 -2 -2 -1 -1 -1 -0 0 0 0 0 -0 -0 0 0 0 1 1 2 2 3 3 4 4
-3 -3 -3 -3 -3 -3 -3 -3 -3 -2 -2 -2 -1 -1 -1 -1 -1 -2 -2 -2 -2 -2 -2 -1 -1 -1 -1 -1 -2 -2 -3 -3 -4 -4 -4 -4 -3 -3 -2 -2 -2 -3 -3 -3 -3 -2 -2 -2 -2 -2 -2 -1 -1 0 0 0 0 -0 -0 0 0 1 1 1 2 2 3 3 3
-5 -5 -5 -5 -4 -4 -4 -3 -3 -3 -2 -2 -2 -1 -1 -1 -2 -2 -2 -3 -3 -3 -2 -2 -2 -2 -1 -1 -1 -1 -2 -2 -3 -3 -4 -4 -4 -4 -3 -3 -3 -3 -3 -3 -3 -3 -3 -2 -2 -2 -2 -2 -1 -1 0 0 0 -0 -0 -0 0 0 1 1 1 2 2 3 3
-5 -5 -4 -4 -3 -3 -3 -2 -2 -2 -2 -1 -1 -1 -1 -1 -1 -1 -2 -2 -3 -3 -3 -2 -2 -2 -2 -2 -2 -2 -1 -2 -2 -3 -3 -4 -4 -4 -4 -4 -3 -3 -3 -4 -3 -3 -3 -3 -2 -2 -2 -2 -2 -1 -0 -0 0 -0 -0 -0 -0 0 0 1 1 1 2 2 3
-3 -3 -3 -3 -2 -2 -2 -1 -1 -1 -1 -1 -0 -0 -0 -0 -1 -1 -1 -1 -2 -2 -2 -2 -2 -2 -2 -2 -2 -2 -1 -1 -2 -2 -2 -3 -4 -4 -4 -4 -4 -4 -4 -4 -4 -4 -3 -3 -3 -2 -2 -2 -2 -2 -1 -1 -0 -0 -1 -1 -1 -0 0 0 1 1 1 2 2
-2 -2 -2 -2 -1 -1 -1 -1 -1 -0 -0 -0 -0 -0 0 0 0 -0 -1 -1 -1 -1 -1 -1 -1 -1 -1 -1 -2 -2 -2 -2 -2 -2 -2 -2 -3 -4 -4 -4 -4 -4 -4 -4 -4 -4 -4 -3 -3 -3 -2 -3 -3 -2 -2 -1 -1 -1 -1 -1 -1 -1 -1 -0 0 1 1 1 2
-1 -1 -1 -1 -1 -1 -1 -1 -0 -0 -0 -0 -0 -0 -0 0 0 -0 -0 -0 -0 -0 -0 -0 -1 -1 -1 -2 -2 -2 -2 -2 -2 -2 -2 -2 -3 -3 -4 -4 -5 -4 -4 -4 -4 -4 -4 -3 -3 -3 -3 -3 -3 -3 -2 -2 -2 -1 -2 -1 -1 -1 -1 -1 -0 0 1 1 1
-1 -1 -1 -1 -1 -1 -1 -1 -1 -1 -1 -0 -0 -0 -0 -0 -0 -0 -0 -1 -1 -1 -1 -1 -1 -1 -1 -2 -2 -2 -2 -2 -2 -2 -2 -2 -2 -3 -4 -4 -5 -5 -4 -4 -4 -4 -4 -4 -3 -3 -3 -3 -3 -3 -3 -2 -2 -2 -2 -2 -2 -1 -1 -1 -1 -0 0 0 1
-1 -1 -1 -1 -1 -1 -1 -1 -1 -1 -1 -1 -1 -0 -0 -0 -0 -1 -1 -1 -1 -1 -1 -2 -2 -2 -2 -2 -2 -2 -2 -2 -2 -3 -3 -3 -3 -3 -4 -4 -5 -5 -5 -4 -4 -4 -4 -4 -4 -4 -4 -4 -4 -3 -3 -3 -3 -3 -2 -2 -2 -2 -1 -1 -1 -1 -0 0 0
-1 -1 -1 -1 -1 -1 -1 -1 -1 -1 -1 -1 -1 -1 -1 -1 -1 -1 -1 -2 -2 -2 -2 -2 -2 -2 -2 -2 -2 -2 -2 -2 -2 -3 -3 -3 -3 -3 -4 -4 -4 -5 -5 -5 -5 -5 -4 -4 -4 -4 -4 -4 -4 -4 -3 -3 -3 -3 -3 -3 -3 -2 -2 -1 -1 -1 -1 -0 0
-1 -1 -1 -1 -1 -1 -1 -1 -1 -1 -1 -1 -2 -2 -2 -1 -2 -2 -2 -2 -2 -2 -2 -2 -2 -2 -3 -3 -3 -3 -3 -3 -3 -3 -3 -3 -3 -3 -4 -4 -4 -4 -4 -5 -5 -5 -5 -4 -4 -4 -4 -4 -4 -4 -4 -4 -4 -4 -3 -3 -3 -3 -2 -2 -1 -1 -1 -1 -0
Height
1439 1438 1438 1438 1437 1437 1437 1437 1436 1436 1436 1436 1436 1437 1437 1437 1437 1437 1437 1437 1437 1437 1436 1436 1436 1435 1435 1435 1435 1435 1435 1435 1434 1434 1434 1434 1434 1434 1433 1433 1433 1433 1432 1432 1432 1432 1432 1433 1433 1433 1433 1433 1433 1433 1433 1433 1433 1434 1434 1434 1434 1434 1435 1435 1435 1435 1435 1435 1434
1439 1438 1438 1438 1437 1437 1436 1436 1436 1436 1436 1436 1436 1436 1437 1437 1437 1437 1436 1436 1436 1436 1436 1435 1435 1435 1435 1434 1434 1434 1433 1433 1433 1432 1432 1432 1432 1432 1431 1431 1431 1431 1431 1430 1430 1430 1430 1430 1430 1430 1430 1430 1430 1430 1430 1430 1430 1431 1431 1431 1431 1431 1432 1432 1431 1431 1432 1432 1431
1437 1437 1437 1437 1437 1437 1437 1436 1436 1435 1435 1435 1436 1436 1436 1436 1436 1436 1436 1435 1435 1435 1435 1435 1434 1434 1434 1434 1433 1433 1432 1432 1431 1431 1430 1430 1430 1430 1429 1429 1429 1429 1429 1429 1428 1428 1428 1428 1428 1428 1427 1427 1427 1427 1426 1426 1427 1428 1427 1427 1428 1428 1429 1428 1428 1429 1429 1429 1429
1437 1436 1436 1436 1436 1436 1436 1436 1436 1435 1435 1435 1435 1435 1435 1435 1435 1435 1435 1435 1434 1434 1434 1433 1433 1433 1433 1432 1432 1432 1431 1430 1430 1429 1429 1428 1428 1427 1427 1427 1427 1427 1427 1427 1426 1426 1426 1426 1426 1425 1425 1425 1424 1424 1424 1424 1424 1424 1424 1424 1425 1425 1425 1425 1425 1425 1426 1426 1425
1436 1436 1436 1435 1435 1435 1435 1435 1435 1434 1434 1434 1434 1434 1434 1434 1433 1433 1433 1433 1432 1432 1432 1432 1432 1431 1431 1431 1430 1430 1430 1429 1429 1428 1427 1426 1426 1425 1425 1425 1425 1425 1424 1424 1424 1424 1424 1424 1424 1423 1423 1422 1422 1421 1421 1421 1421 1421 1421 1421 1421 1421 1421 1421 1422 1422 1423 1422 1422
1436 1436 1435 1435 1434 1434 1434 1433 1433 1433 1432 1432 1432 1432 1432 1432 1431 1431 1431 1430 1430 1430 1430 1430 1430 1429 1429 1429 1428 1428 1427 1427 1426 1426 1425 1425 1424 1424 1423 1423 1423 1422 1422 1422 1422 1422 1422 1422 1421 1421 1420 1420 1420 1419 1418 1419 1419 1418 1418 1418 1418 1418 1418 1418 1418 1419 1419 1419 1419
1436 1435 1435 1434 1433 1433 1432 1432 1431 1431 1431 1430 1430 1430 1429 1429 1428 1428 1428 1427 1427 1427 1427 1427 1427 1426 1426 1426 1425 1425 1425 1425 1424 1424 1423 1422 1422 1421 1421 1420 1420 1420 1420 1419 1419 1419 1419 1419 1419 1418 1418 1417 1417 1416 1416 1416 1415 1415 1415 1414 1414 1415 1415 1415 1415 1415 1416 1416 1415
1436 1435 1434 1433 1432 1432 1431 1430 1430 1430 1429 1429 1429 1428 1427 1427 1426 1426 1425 1425 1425 1424 1424 1424 1423 1423 1423 1423 1422 1422 1422 1421 1421 1420 1420 1420 1419 1419 1418 1418 1417 1417 1417 1417 1416 1416 1416 1416 1416 1415 1415 1414 1414 1413 1413 1413 1412 1412 1411 1410 1410 1411 1411 1411 1411 1412 1412 1412 1412
1435 1435 1434 1433 1432 1431 1430 1430 1429 1429 1428 1427 1427 1427 1426 1425 1425 1425 1424 1423 1423 1422 1422 1421 1421 1420 1420 1419 1419 1419 1418 1418 1418 1417 1417 1417 1416 1416 1415 1415 1414 1414 1414 1414 1413 1413 1413 1413 1412 1411 1411 1410 1410 1410 1409 1410 1409 1409 1408 1407 1407 1407 1407 1407 1407 1408 1408 1408 1409
1435 1435 1434 1433 1432 1431 1430 1429 1428 1428 1427 1426 1426 1425 1424 1424 1423 1423 1422 1421 1421 1420 1420 1419 1418 1418 1417 1417 1416 1416 1415 1415 1414 1414 1413 1413 1413 1412 1412 1412 1411 1411 1410 1410 1410 1410 1410 1410 1409 1408 1407 1407 1406 1406 1406 1406 1406 1405 1404 1404 1404 1403 1403 1403 1404 1404 1404 1404 1404
1436 1435 1434 1433 1432 1431 1430 1429 1428 1427 1426 1425 1425 1424 1423 1422 1422 1421 1420 1419 1419 1418 1417 1416 1416 1415 1415 1414 1414 1413 1412 1412 1411 1411 1410 1410 1409 1409 1408 1408 1408 1407 1407 1407 1407 1407 1406 1405 1405 1404 1404 1403 1403 1402 1402 1402 1402 1401 1400 1400 1400 1400 1399 1399 1399 1400 1400 1400 1400
1437 1435 1434 1433 1432 1431 1430 1429 1428 1427 1426 1425 1424 1423 1422 1421 1421 1420 1419 1418 1417 1416 1415 1415 1414 1413 1412 1411 1410 1410 1410 1409 1409 1408 1407 1407 1406 1405 1405 1404 1404 1403 1403 1403 1403 1403 1402 1401 1401 1400 1400 1399 1399 1398 1398 1398 1397 1397 1396 1396 1396 1395 1395 1394 1395 1395 1395 1395 1395
1437 1436 1435 1434 1432 1431 1430 1429 1428 1427 1426 1425 1424 1423 1422 1421 1420 1419 1418 1417 1416 1415 1414 1413 1412 1411 1410 1409 1408 1407 1406 1406 1405 1405 1405 1404 1404 1403 1403 1401 1400 1400 1400 1399 1399 1399 1398 1397 1396 1396 1395 1395 1395 1394 1394 1393 1393 1392 1392 1392 1391 1391 1390 1389 1390 1390 1390 1391 1391
1438 1437 1435 1434 1433 1431 1430 1429 1428 1427 1426 1425 1424 1423 1422 1420 1420 1418 1417 1416 1415 1414 1413 1412 1410 1410 1409 1407 1406 1405 1403 1403 1402 1402 1401 1401 1401 1401 1400 1399 1398 1398 1397 1396 1395 1395 1394 1393 1392 1392 1391 1390 1390 1390 1390 1389 1388 1388 1387 1387 1387 1386 1386 1385 1385 1385 1386 1386 1386
1439 1437 1436 1435 1433 1432 1430 1429 1428 1427 1426 1425 1424 1423 1422 1421 1420 1418 1417 1416 1415 1414 1412 1411 1410 1409 1408 1406 1405 1403 1402 1400 1400 1399 1398 1398 1397 1397 1397 1396 1395 1395 1394 1393 1392 1391 1390 1390 1389 1388 1387 1386 1385 1385 1385 1385 1384 1383 1382 1382 1381 1382 1382 1381 1380 1380 1381 1381 1381
1439 1438 1436 1435 1434 1432 1431 1430 1429 1428 1426 1425 1424 1423 1422 1421 1420 1418 1417 1416 1415 1413 1412 1411 1410 1408 1407 1405 1404 1402 1401 1399 1398 1397 1396 1395 1395 1394 1393 1392 1391 1391 1390 1389 1388 1388 1388 1387 1386 1385 1383 1382 1381 1380 1380 1380 1379 1378 1377 1376 1376 1376 1376 1376 1376 1376 1376 1375 1376
1439 1438 1436 1435 1434 1433 1431 1430 1429 1428 1427 1426 1425 1423 1422 1421 1420 1419 1417 1416 1415 1413 1412 1410 1409 1408 1406 1405 1403 1402 1400 1399 1397 1396 1395 1394 1393 1392 1392 1391 1390 1389 1387 1386 1385 1384 1383 1383 1382 1381 1380 1379 1378 1376 1375 1374 1373 1372 1371 1371 1370 1370 1370 1371 1371 1371 1371 1371 1370
1439 1438 1436 1435 1434 1433 1432 1431 1430 1429 1427 1426 1425 1424 1422 1421 1420 1419 1418 1416 1415 1413 1412 1410 1409 1408 1406 1404 1403 1401 1400 1398 1397 1396 1395 1394 1393 1392 1391 1390 1389 1388 1386 1385 1383 1381 1380 1378 1377 1376 1375 1375 1375 1373 1372 1370 1369 1367 1366 1365 1365 1364 1365 1365 1366 1366 1366 1365 1365
1439 1437 1436 1435 1434 1433 1432 1431 1430 1429 1427 1426 1425 1424 1423 1421 1420 1419 1417 1416 1415 1413 1412 1410 1409 1407 1406 1404 1403 1401 1400 1398 1397 1395 1395 1393 1392 1391 1390 1389 1388 1386 1385 1383 1382 1380 1378 1376 1374 1372 1371 1369 1368 1367 1367 1366 1365 1363 1361 1360 1360 1359 1359 1360 1360 1361 1361 1360 1360
1439 1437 1436 1435 1434 1433 1432 1430 1430 1428 1427 1426 1425 1424 1422 1421 1420 1418 1417 1415 1414 1413 1411 1410 1408 1407 1405 1404 1403 1401 1400 1398 1397 1395 1394 1393 1392 1390 1389 1388 1386 1385 1383 1382 1380 1378 1377 1375 1373 1371 1369 1366 1364 1362 1360 1359 1358 1357 1357 1356 1355 1354 1353 1354 1355 1355 1355 1355 1356
1439 1437 1436 1435 1434 1433 1432 1430 1430 1428 1427 1426 1425 1424 1422 1421 1420 1418 1417 1415 1414 1412 1411 1409 1408 1406 1405 1403 1402 1400 1400 1398 1397 1395 1394 1392 1391 1390 1388 1386 1385 1383 1381 1380 1378 1376 1375 1373 1371 1369 1367 1365 1362 1360 1357 1355 1353 1352 1351 1350 1350 1349 1348 1348 1349 1350 1350 1350 1350
1439 1437 1436 1435 1434 1433 1432 1430 1429 1428 1427 1426 1425 1423 1422 1420 1419 1418 1416 1415 1414 1412 1410 1409 1407 1406 1404 1403 1401 1400 1399 1397 1396 1395 1394 1392 1390 1389 1387 1385 1384 1382 1380 1378 1376 1374 1372 1370 1368 1366 1364 1362 1360 1358 1355 1353 1351 1349 1346 1345 1344 1344 1343 1343 1343 1343 1344 1344 1345
1439 1438 1436 1435 1434 1433 1431 1430 1429 1428 1426 1425 1424 1422 1421 1420 1419 1417 1416 1415 1413 1411 1410 1408 1407 1405 1404 1403 1401 1399 1398 1396 1395 1394 1393 1391 1390 1388 1387 1385 1383 1381 1379 1377 1375 1372 1370 1367 1365 1363 1361 1359 1357 1355 1353 1351 1349 1347 1344 1341 1340 1339 1339 1338 1338 1338 1338 1338 1339
1439 1438 1436 1435 1434 1432 1431 1430 1428 1427 1425 1424 1423 1421 1420 1419 1417 1416 1415 1413 1412 1410 1409 1408 1406 1405 1403 1402 1400 1399 1397 1395 1394 1392 1391 1390 1389 1387 1385 1384 1382 1380 1378 1376 1374 1371 1369 1367 1364 1361 1359 1357 1355 1353 1351 1350 1348 1345 1342 1340 1337 1335 1334 1334 1334 1333 1333 1332 1333
1439 1438 1436 1435 1434 1432 1431 1430 1428 1426 1425 1424 1422 1421 1420 1418 1416 1415 1414 1412 1411 1410 1408 1406 1405 1404 1402 1401 1400 1398 1397 1395 1393 1391 1390 1389 1387 1386 1384 1382 1380 1378 1376 1375 1373 1371 1369 1367 1365 1362 1359 1356 1354 1351 1350 1348 1346 1344 1342 1339 1336 1334 1331 1330 1329 1328 1328 1328 1327
1439 1438 1437 1435 1434 1433 1431 1430 1428 1426 1425 1424 1422 1421 1419 1418 1416 1415 1413 1411 1410 1409 1407 1405 1404 1403 1401 1400 1399 1397 1396 1394 1393 1391 1389 1387 1386 1384 1383 1381 1379 1377 1375 1373 1371 1370 1368 1366 1364 1362 1359 1356 1353 1350 1348 1346 1344 1343 1341 1339 1335 1332 1330 1327 1326 1325 1324 1323 1322
1440 1438 1437 1436 1434 1433 1431 1430 1429 1427 1425 1424 1422 1421 1419 1418 1416 1415 1413 1411 1410 1408 1407 1405 1403 1402 1400 1399 1397 1396 1395 1393 1392 1390 1389 1387 1385 1383 1381 1380 1378 1376 1374 1372 1370 1368 1366 1364 1362 1360 1358 1355 1353 1350 1347 1344 1342 1340 1339 1336 1334 1331 1327 1324 1321 1320 1320 1319 1318
1439 1438 1437 1436 1434 1433 1431 1430 1429 1427 1425 1424 1423 1421 1420 1418 1416 1415 1413 1411 1410 1408 1406 1404 1403 1401 1400 1398 1397 1395 1394 1392 1391 1389 1388 1386 1384 1382 1380 1379 1377 1375 1373 1371 1369 1367 1365 1362 1360 1358 1356 1354 1351 1348 1345 1343 1340 1338 1335 1333 1331 1328 1325 1321 1317 1314 1313 1314 1314
1439 1438 1436 1435 1434 1432 1431 1430 1428 1426 1425 1424 1423 1421 1420 1418 1416 1414 1412 1411 1409 1407 1405 1403 1402 1400 1399 1397 1396 1395 1393 1391 1390 1388 1387 1385 1383 1381 1379 1377 1376 1374 1372 1370 1368 1366 1363 1361 1359 1356 1355 1352 1350 1347 1344 1341 1338 1335 1333 1330 1328 1325 1321 1318 1314 1311 1309 1306 1305
1438 1437 1435 1434 1433 1431 1430 1428 1426 1425 1424 1422 1421 1420 1418 1416 1414 1413 1411 1409 1408 1406 1405 1403 1401 1400 1398 1396 1395 1393 1392 1390 1389 1387 1385 1384 1382 1380 1378 1376 1375 1373 1371 1369 1367 1365 1363 1360 1358 1355 1353 1350 1347 1345 1342 1339 1336 1333 1330 1327 1324 1321 1318 1315 1311 1308 1305 1303 1300
1437 1435 1434 1432 1430 1429 1427 1425 1424 1423 1421 1420 1418 1417 1415 1413 1412 1410 1409 1407 1406 1405 1404 1403 1401 1399 1398 1396 1394 1393 1391 1389 1388 1386 1384 1382 1380 1379 1377 1375 1373 1371 1370 1368 1366 1364 1362 1360 1357 1354 1351 1349 1345 1342 1339 1336 1333 1330 1328 1325 1321 1318 1315 1311 1309 1306 1303 1301 1298
1435 1433 1432 1430 1428 1427 1425 1423 1422 1420 1419 1418 1416 1414 1413 1411 1410 1409 1408 1406 1405 1404 1402 1401 1400 1398 1396 1395 1393 1391 1390 1388 1386 1385 1383 1381 1379 1377 1375 1374 1372 1370 1368 1367 1365 1363 1361 1358 1356 1353 1350 1347 1344 1340 1337 1334 1331 1328 1325 1322 1318 1315 1312 1309 1306 1304 1301 1299 1297
1434 1432 1431 1429 1427 1426 1424 1423 1421 1420 1418 1417 1415 1414 1412 1410 1409 1408 1407 1405 1404 1403 1401 1400 1399 1397 1395 1394 1392 1390 1388 1387 1385 1383 1382 1380 1378 1376 1374 1372 1370 1368 1367 1365 1363 1361 1359 1357 1355 1352 1349 1346 1342 1339 1335 1332 1328 1325 1322 1319 1316 1313 1310 1307 1305 1302 1300 1298 1295
1434 1432 1430 1429 1427 1425 1424 1422 1421 1420 1418 1416 1415 1414 1412 1410 1409 1407 1406 1405 1404 1402 1401 1400 1398 1397 1395 1394 1392 1390 1388 1386 1384 1382 1380 1378 1376 1374 1372 1370 1369 1367 1365 1363 1361 1359 1357 1355 1353 1350 1347 1344 1340 1336 1333 1329 1326 1322 1319 1316 1313 1310 1308 1305 1302 1300 1298 1296 1293
1433 1432 1430 1429 1427 1426 1424 1422 1421 1420 1418 1416 1415 1414 1412 1411 1410 1408 1406 1405 1403 1402 1400 1399 1398 1396 1395 1393 1392 1390 1387 1385 1383 1381 1379 1377 1375 1372 1370 1369 1367 1365 1364 1362 1360 1357 1355 1353 1351 1348 1345 1342 1338 1334 1330 1327 1323 1320 1317 1314 1311 1308 1305 1303 1300 1298 1295 1293 1291
1434 1432 1430 1429 1427 1426 1424 1423 1421 1420 1418 1417 1415 1414 1412 1411 1410 1408 1406 1405 1403 1401 1400 1398 1397 1395 1393 1391 1390 1389 1387 1385 1382 1380 1378 1375 1373 1370 1368 1366 1365 1363 1362 1360 1357 1355 1353 1351 1349 1346 1343 1340 1336 1332 1329 1325 1321 1318 1315 1312 1309 1306 1303 1300 1298 1295 1293 1291 1289
1434 1433 1431 1429 1428 1426 1425 1423 1421 1420 1418 1417 1415 1414 1412 1411 1409 1408 1406 1405 1402 1400 1399 1397 1396 1394 1392 1390 1389 1387 1386 1384 1382 1379 1377 1375 1372 1370 1367 1365 1363 1361 1360 1358 1355 1353 1351 1349 1347 1345 1341 1338 1334 1330 1327 1323 1320 1316 1313 1310 1307 1304 1301 1299 1296 1293 1291 1289 1286
1435 1433 1432 1430 1428 1427 1425 1424 1422 1420 1419 1417 1415 1414 1413 1411 1409 1408 1406 1404 1402 1400 1399 1397 1395 1394 1392 1390 1388 1386 1385 1383 1381 1379 1376 1374 1371 1369 1366 1363 1361 1359 1358 1356 1354 1351 1350 1347 1345 1343 1340 1336 1333 1329 1325 1322 1318 1315 1312 1309 1305 1302 1300 1297 1294 1291 1289 1286 1284
1435 1434 1432 1430 1429 1427 1425 1424 1422 1420 1419 1417 1415 1414 1412 1411 1409 1408 1406 1404 1403 1401 1399 1397 1395 1393 1391 1389 1387 1385 1383 1382 1380 1378 1376 1373 1371 1368 1366 1363 1360 1358 1356 1354 1352 1350 1348 1346 1344 1341 1339 1335 1331 1328 1324 1320 1317 1314 1310 1307 1304 1300 1298 1295 1293 1290 1287 1284 1282
1435 1434 1433 1431 1429 1428 1426 1424 1423 1421 1419 1418 1416 1414 1412 1411 1409 1408 1406 1404 1402 1400 1399 1396 1395 1393 1391 1389 1386 1384 1382 1380 1379 1377 1375 1372 1370 1368 1365 1362 1359 1357 1354 1352 1350 1348 1346 1345 1342 1340 1337 1334 1330 1327 1323 1320 1316 1312 1309 1306 1303 1299 1295 1293 1290 1288 1285 1282 1280
1436 1434 1433 1431 1430 1428 1426 1424 1423 1421 1420 1418 1416 1414 1412 1411 1409 1407 1405 1404 1402 1400 1398 1396 1394 1392 1390 1388 1386 1383 1381 1379 1377 1375 1373 1371 1369 1366 1364 1361 1358 1355 1353 1350 1349 1347 1345 1343 1340 1338 1335 1333 1329 1325 1322 1318 1315 1311 1308 1305 1301 1298 1295 1291 1288 1286 1283 1281 1278
Wind_Speed
13 12 12 13 14 15 17 19 20 21 21 20 19 19 19 20 21 22 22 22 23 23 24 25 25 25 26 26 26 26 27 27 27 28 28 29 29 30 31 31 32 33 34 34 34 35 35 35 35 36 37 38 38 39 40 40 41 42 42 42 42 42 43 44 44 45 46 46 47
12 12 12 13 13 14 15 17 18 18 18 18 18 18 19 20 21 22 23 23 24 24 24 25 25 26 26 27 27 27 28 28 28 29 29 30 30 31 31 32 33 33 34 35 35 36 36 36 37 37 38 38 38 39 39 39 40 41 42 43 44 44 44 44 45 45 46 46 47
11 11 11 11 12 14 15 16 17 17 17 17 17 18 19 20 21 22 23 24 25 25 26 26 26 27 27 27 28 28 29 29 30 30 31 31 31 32 32 33 33 34 34 35 36 36 37 37 38 38 39 39 39 39 39 39 39 40 41 43 44 45 45 45 46 46 45 46 47
11 11 10 9 10 10 12 14 15 17 17 17 17 18 19 20 21 22 23 24 25 26 27 28 29 29 29 29 29 30 30 31 31 31 32 32 33 33 33 34 34 34 35 35 36 37 38 38 39 39 39 39 39 40 40 39 39 39 40 41 43 44 46 47 47 46 44 45 45
12 11 10 9 8 8 9 10 11 13 15 16 17 18 19 20 21 22 23 24 25 26 27 28 29 30 31 31 32 32 33 33 33 33 34 34 34 35 35 35 35 35 36 36 37 37 38 39 39 40 40 40 40 40 40 40 40 40 40 40 41 42 44 46 47 48 47 46 45
13 12 10 8 8 7 7 8 9 10 11 12 13 15 16 18 20 21 23 24 25 26 27 27 28 29 30 31 32 33 34 34 35 35 36 36 36 36 36 36 37 37 37 37 38 38 39 39 40 41 41 41 41 41 41 41 41 41 41 41 41 42 43 44 46 47 48 48 48
14 13 12 10 9 8 8 8 8 9 10 10 11 11 12 14 16 18 20 22 24 26 27 28 29 30 30 31 32 33 34 34 35 36 36 37 37 37 37 38 38 38 38 39 39 39 39 40 41 42 42 42 42 42 42 42 42 42 43 43 43 42 43 44 45 46 47 48 49
14 13 13 12 12 11 10 10 10 10 10 11 12 13 14 15 16 17 19 20 22 23 24 25 27 29 30 32 33 34 35 35 36 36 36 37 37 38 38 38 39 39 39 40 40 40 41 41 42 43 44 45 44 44 43 43 43 44 44 45 44 44 44 44 45 46 47 47 48
14 14 13 13 13 12 12 11 11 11 11 12 13 14 15 16 18 19 20 21 22 23 24 24 26 27 29 30 32 34 35 36 37 38 39 39 39 39 39 39 40 40 40 41 41 41 42 42 43 44 46 47 47 47 46 46 46 46 46 47 46 46 46 46 46 47 47 48 48
16 15 14 14 14 14 13 12 12 12 12 12 13 14 16 17 18 19 20 22 23 24 25 27 28 28 29 30 31 32 33 35 37 39 41 42 43 42 42 41 41 41 42 42 42 43 43 44 45 46 47 47 48 49 50 49 49 49 49 49 48 47 47 48 48 48 48 49 49
18 17 16 16 16 15 14 14 13 13 13 13 13 14 15 16 17 18 19 22 24 25 27 28 29 30 31 32 33 33 34 34 35 36 38 41 43 44 45 44 44 44 44 44 44 44 44 45 46 47 48 49 49 50 51 52 52 52 52 52 51 50 50 50 50 49 49 50 50
20 19 18 18 17 17 16 16 16 15 15 15 14 14 15 15 15 16 18 19 21 22 24 25 27 28 30 32 33 34 35 36 36 36 36 37 39 42 44 46 46 46 46 46 46 46 47 48 48 49 49 50 51 51 52 53 54 54 55 55 55 54 54 54 53 52 51 51 51
21 20 19 19 18 18 18 18 18 18 18 18 17 17 17 16 16 16 16 16 17 17 18 19 20 21 23 25 28 31 33 35 36 36 35 35 35 38 42 45 47 48 48 48 49 49 50 51 51 51 52 52 53 53 54 54 55 56 57 57 57 56 56 56 56 56 54 53 53
21 21 20 20 19 19 19 20 20 20 20 20 20 20 19 18 18 18 18 17 17 17 17 17 17 17 17 18 20 23 26 29 31 31 31 30 31 33 37 40 44 46 48 49 49 50 51 52 53 54 54 55 55 56 56 57 57 58 59 60 60 58 55 54 56 58 59 58 57
22 21 21 20 20 20 20 20 20 20 20 20 20 20 20 19 19 19 19 18 18 18 18 18 18 17 17 17 16 17 18 20 22 24 25 26 26 27 30 33 36 39 41 43 45 47 49 51 53 55 56 57 57 57 57 58 59 61 62 63 63 62 59 55 54 57 60 61 61
22 22 21 21 21 21 21 21 21 21 20 20 20 19 19 19 19 19 19 19 19 19 19 19 19 19 19 18 17 16 15 14 15 16 17 19 21 22 24 26 28 31 33 34 35 37 40 44 48 52 55 57 58 58 58 58 59 61 62 64 65 64 62 59 55 54 57 61 62
23 22 22 22 21 21 21 21 21 21 20 20 20 19 19 19 19 19 19 19 19 19 19 20 20 20 20 20 19 19 17 15 14 14 14 14 15 16 18 20 22 25 28 29 30 30 30 31 33 38 43 49 54 58 59 59 60 60 61 62 63 63 63 61 57 54 55 58 61
24 23 23 22 22 22 22 22 21 21 21 21 20 20 19 19 19 18 18 19 18 19 19 19 20 20 20 20 20 19 19 18 17 16 16 16 16 17 18 18 19 21 22 24 26 27 27 26 25 26 28 32 39 46 52 57 60 61 61 62 62 62 62 61 59 56 54 55 57
25 25 24 24 23 23 22 22 22 22 22 21 21 20 20 19 19 18 18 18 18 18 18 19 19 19 19 19 19 19 19 19 18 17 16 16 16 16 17 18 19 20 22 23 23 24 25 26 25 24 23 23 25 29 35 42 49 55 59 61 62 63 62 61 60 58 56 55 56
26 26 26 25 25 24 24 23 23 23 22 22 21 21 21 20 20 19 19 19 19 18 18 19 19 20 20 19 19 20 20 20 20 19 18 17 17 16 17 17 18 19 20 22 23 24 25 26 26 26 25 25 25 25 27 29 33 39 47 55 60 63 64 63 62 61 59 58 58
27 27 27 26 26 25 25 24 24 23 23 23 22 22 21 21 21 20 20 20 20 20 19 19 20 21 22 22 22 22 22 22 23 23 22 21 21 20 19 19 18 19 20 21 23 24 26 27 28 28 29 29 29 29 29 30 30 32 35 41 49 57 62 64 64 63 62 61 61
27 27 27 27 26 26 25 25 24 24 24 24 23 23 23 22 22 21 21 21 21 21 21 21 21 22 23 23 24 24 24 24 24 24 24 24 24 23 23 22 21 21 21 21 23 24 26 27 28 29 30 31 31 31 32 32 33 34 34 36 40 47 55 61 64 64 64 64 64
27 27 27 27 26 26 26 26 25 25 25 25 25 25 24 24 24 23 23 23 23 23 23 22 21 21 22 23 24 24 24 25 25 25 25 25 25 25 25 25 24 23 23 23 23 24 25 27 28 29 31 31 32 32 32 32 34 35 35 35 36 40 46 53 59 63 65 66 66
26 27 27 27 27 27 27 26 26 26 26 26 26 26 26 26 26 26 25 25 25 25 25 24 23 22 22 23 23 24 25 25 26 26 26 27 27 27 27 27 26 26 25 25 24 24 25 27 29 30 31 32 33 33 33 32 33 34 35 34 33 34 38 45 52 59 63 65 66
25 25 26 26 26 27 27 27 27 27 27 27 27 27 27 27 27 27 27 27 27 27 27 26 26 25 24 24 24 24 25 25 26 26 27 27 28 28 28 28 28 28 28 27 26 25 26 27 29 31 32 33 33 34 33 32 32 33 33 33 32 30 31 36 43 51 58 63 66
24 24 24 25 25 26 26 26 27 27 27 27 27 27 27 27 27 27 28 28 28 28 28 28 28 27 27 26 26 26 26 26 26 26 27 28 28 28 28 28 29 29 29 28 28 27 27 27 28 30 32 33 34 34 34 33 32 32 32 32 32 30 29 29 32 40 49 58 65
23 23 23 23 23 24 24 25 25 26 26 27 27 27 26 26 26 26 27 27 27 28 28 28 29 29 28 28 28 29 29 28 28 27 27 28 27 27 28 28 28 29 29 29 29 28 28 28 28 29 31 33 35 35 35 34 33 32 31 32 32 32 30 28 26 28 36 46 57
22 22 22 22 22 22 23 23 24 25 25 26 26 26 25 25 25 25 26 26 27 28 28 29 29 29 29 29 29 29 29 29 29 28 28 28 27 27 27 27 27 28 28 28 29 29 29 29 29 29 31 33 35 35 35 34 34 33 32 32 32 33 33 32 29 25 24 27 36
22 22 22 22 23 23 24 24 25 26 26 27 27 26 25 25 25 25 26 27 28 29 30 31 30 30 30 29 29 30 30 30 29 29 28 28 28 27 26 26 26 27 27 28 29 29 29 29 30 30 31 32 34 35 36 35 34 33 33 33 33 33 34 34 33 31 27 23 22
25 25 26 26 27 27 28 28 29 29 30 30 30 29 29 29 29 29 29 30 30 30 31 31 31 30 30 30 30 30 30 30 30 29 29 29 28 27 26 25 25 26 27 28 29 30 30 30 30 31 32 33 34 35 36 36 35 35 34 34 34 33 34 34 34 33 32 29 25
30 31 31 32 32 32 33 33 33 34 34 34 34 34 34 34 34 33 33 33 33 32 31 31 31 31 30 30 30 31 31 31 31 30 30 29 29 28 27 26 26 26 27 28 29 30 31 31 32 33 33 34 34 35 36 36 36 36 36 35 35 34 34 34 34 33 33 32 29
33 34 34 34 35 35 35 36 36 36 37 37 37 37 37 37 36 36 36 35 35 35 34 33 33 32 32 31 31 31 31 31 31 31 31 30 30 29 28 28 27 27 28 29 29 30 31 32 33 35 36 36 35 36 36 36 37 37 37 37 36 35 35 34 33 33 33 32 31
33 33 34 34 35 35 36 36 36 37 37 37 37 37 37 37 37 37 36 36 36 36 36 35 35 34 33 32 32 32 32 32 32 32 32 32 31 30 29 29 29 29 29 29 29 30 31 32 33 35 37 38 37 37 36 37 37 38 38 38 37 37 36 35 34 33 32 32 31
32 33 34 34 35 36 36 36 36 36 37 37 37 37 37 37 37 37 36 36 36 36 36 36 36 35 33 32 31 31 32 32 32 32 33 33 32 31 31 30 30 30 30 30 30 30 31 32 34 35 37 39 39 38 38 38 38 38 39 39 38 38 38 37 35 33 32 31 31
33 34 35 35 35 36 36 36 36 36 36 37 37 37 37 36 36 36 36 36 36 36 36 36 36 35 34 33 32 31 31 31 32 32 33 33 33 33 32 31 31 31 31 31 31 31 32 33 34 35 37 39 40 40 40 40 39 39 40 40 40 39 39 39 37 35 33 31 31
33 34 34 35 35 35 35 35 35 35 35 36 36 36 36 36 35 35 36 36 36 36 36 36 36 36 35 35 34 33 32 31 31 32 33 33 34 33 33 32 32 32 32 31 32 32 33 33 34 36 37 39 40 41 41 41 41 41 41 41 41 41 40 41 40 38 35 32 31
32 32 33 33 34 34 34 34 34 34 34 34 34 35 35 35 34 35 35 35 35 35 35 36 36 35 35 35 35 34 33 32 31 31 32 33 33 34 34 33 33 33 33 32 32 33 33 34 35 36 38 39 40 41 41 42 42 42 42 42 42 42 42 41 41 40 38 35 32
31 31 31 32 32 33 33 33 33 33 33 33 33 33 33 33 33 34 34 34 34 34 35 35 35 35 35 34 34 34 33 32 31 31 32 32 33 34 34 34 34 34 34 33 33 33 34 34 35 36 37 39 41 41 42 43 43 43 43 43 43 43 42 42 42 42 40 37 34
30 30 30 31 31 31 32 32 32 32 32 32 32 32 32 32 32 33 33 33 33 33 33 33 33 33 34 34 34 34 34 33 32 32 32 32 33 33 34 35 35 36 35 34 33 33 34 35 35 36 37 39 40 41 42 43 43 43 43 44 44 44 43 43 43 43 42 40 37
29 29 29 29 30 30 30 31 30 31 31 31 31 31 32 32 31 32 32 32 32 32 32 32 32 32 33 33 33 33 34 34 33 33 32 32 33 34 34 35 36 37 37 36 35 34 34 35 36 37 38 39 40 41 42 42 43 44 44 44 45 45 44 44 43 43 43 42 39
28 28 28 28 29 29 29 29 30 30 30 30 30 30 31 31 31 31 30 30 30 30 31 31 31 31 31 32 32 33 34 34 34 34 34 34 34 34 35 36 37 38 39 38 37 35 35 35 37 37 38 39 40 41 41 42 43 44 45 45 45 45 45 45 44 44 44 43 41
Wind_Direction
336 329 320 310 301 294 290 287 285 283 280 277 274 272 271 269 267 266 265 264 263 263 263 262 262 262 263 263 263 263 264 264 263 262 262 262 263 263 264 264 264 264 265 266 266 266 265 263 261 259 258 257 256 255 253 251 249 247 247 247 247 247 247 247 248 249 250 251 252
347 335 325 316 309 302 297 294 292 289 285 281 278 277 276 274 272 271 269 267 265 265 265 265 265 265 265 265 265 264 264 264 264 263 263 263 264 264 264 263 263 263 263 263 264 264 263 263 261 259 258 257 257 256 255 254 252 250 248 247 247 247 247 247 247 248 249 250 251
13 358 343 329 317 308 302 297 295 292 288 283 279 277 277 277 276 275 274 272 269 268 267 266 266 266 266 266 266 266 265 265 265 265 264 264 264 264 264 263 263 263 262 262 262 262 262 261 260 259 258 257 257 256 256 255 254 252 250 249 248 247 247 248 247 247 248 249 250
29 22 12 359 343 326 313 303 297 292 288 284 279 276 275 276 277 277 277 277 276 274 272 271 269 268 267 267 266 266 265 265 265 265 265 265 264 264 264 263 263 263 262 261 261 261 260 260 259 258 256 256 256 256 256 255 254 253 251 250 249 248 248 248 247 247 248 249 249
31 28 22 14 1 347 333 319 309 300 292 286 282 278 275 273 273 273 275 276 277 277 277 277 276 274 273 271 269 268 267 266 265 265 265 265 265 264 264 263 263 262 262 261 260 259 259 258 257 256 255 255 255 255 255 255 254 253 252 251 250 249 248 248 248 248 248 249 249
24 22 18 10 359 350 338 328 320 312 304 295 289 284 280 277 274 272 271 271 272 273 274 275 276 276 276 275 274 273 271 269 268 266 265 265 264 264 264 263 263 262 262 261 260 260 259 257 256 255 254 254 254 254 255 254 254 253 253 252 251 250 249 249 248 248 248 248 249
19 15 9 2 353 344 334 322 314 307 302 297 294 291 289 285 281 277 273 270 269 270 270 270 270 271 271 272 273 273 273 272 270 269 267 266 265 264 263 263 262 262 261 261 260 260 259 257 256 255 255 254 254 254 254 254 253 253 252 251 251 250 249 249 249 248 248 248 249
17 12 6 358 349 341 333 323 315 307 299 294 291 289 288 286 283 281 278 275 274 273 273 272 271 270 268 268 268 268 269 269 269 269 268 267 266 265 264 263 262 261 260 260 259 259 258 257 256 256 255 255 254 254 253 253 253 253 252 252 251 250 250 249 249 248 248 247 248
17 12 6 360 353 348 342 336 328 321 312 304 297 294 291 288 285 284 283 281 279 278 277 277 276 274 272 270 269 268 268 267 267 267 267 267 267 266 265 264 263 261 260 259 258 257 257 256 256 255 255 255 255 255 254 254 253 253 253 253 252 251 250 249 249 249 248 247 247
22 18 14 11 8 4 359 355 348 341 332 322 313 308 304 298 295 295 294 290 285 282 280 279 278 277 276 275 274 273 272 271 269 268 267 266 266 266 265 265 264 262 261 259 258 257 256 256 255 255 255 255 255 256 256 255 254 253 253 253 252 252 251 249 249 248 248 247 247
29 27 26 25 23 19 15 12 8 3 357 348 338 331 324 314 314 314 308 299 294 290 287 284 282 281 280 278 278 277 277 277 276 274 272 269 267 266 266 266 265 264 262 260 259 258 257 255 254 254 254 254 255 255 256 256 255 254 254 253 253 252 251 250 249 248 248 247 246
32 32 32 32 31 29 27 25 23 21 17 11 5 358 350 341 337 331 323 314 309 304 299 295 293 290 286 284 282 280 279 279 280 280 280 278 275 272 270 270 269 267 265 262 260 259 257 256 255 254 254 254 254 254 255 255 255 255 254 254 253 252 251 250 249 248 247 247 246
29 30 31 32 32 31 30 29 29 28 26 23 20 17 13 9 2 355 348 343 336 329 323 317 312 306 300 294 289 285 282 280 280 281 283 285 284 280 277 275 273 271 268 265 262 260 258 257 256 255 254 254 254 254 254 254 254 254 254 255 254 253 251 250 249 248 248 247 246
25 26 27 28 28 28 28 28 28 28 27 26 25 23 22 21 17 14 10 7 3 358 352 346 340 334 326 316 304 295 288 284 282 281 282 284 285 284 281 278 275 272 269 266 263 260 259 258 258 257 256 255 255 254 254 254 254 254 255 255 255 255 253 250 248 248 249 249 248
21 21 22 22 23 23 24 24 25 25 25 25 24 23 23 22 21 20 18 17 15 12 9 6 2 358 352 343 330 316 303 294 288 284 282 281 281 282 282 280 277 275 272 270 267 264 262 260 259 258 258 258 257 257 257 256 256 256 257 257 258 257 256 252 248 247 248 250 249
19 18 18 18 18 19 20 20 20 21 21 21 21 20 20 21 21 20 19 19 17 16 15 14 12 10 7 4 357 347 335 322 311 302 296 292 289 287 286 284 282 280 279 277 276 274 271 268 265 262 260 260 259 259 260 260 260 260 261 261 261 260 258 254 249 246 247 249 250
20 19 18 17 16 16 17 17 17 16 16 17 17 17 17 17 17 18 18 17 15 15 15 15 14 13 13 13 11 8 4 358 351 345 339 333 328 321 314 306 299 293 289 286 284 283 282 281 278 274 270 266 263 261 260 260 260 262 263 264 264 263 261 256 250 246 245 247 249
21 20 19 18 17 16 16 15 14 13 12 12 12 13 13 13 13 14 14 14 13 12 12 12 12 12 12 12 12 12 11 10 9 7 5 3 359 355 349 341 333 324 316 308 301 295 291 290 288 288 286 282 276 270 265 261 259 258 259 262 263 264 262 258 251 246 245 246 248
21 21 20 19 18 17 16 15 13 11 10 9 8 7 8 8 8 9 10 11 11 10 10 9 9 8 8 8 8 8 8 7 7 6 5 3 0 357 353 348 344 339 335 330 324 318 311 304 298 295 296 299 297 291 282 274 267 261 258 257 258 260 261 258 252 246 244 244 246
20 20 19 19 18 18 17 16 14 12 10 7 5 4 3 3 2 2 4 6 7 7 7 8 7 6 5 5 5 5 4 3 2 360 357 356 353 350 345 341 338 334 331 327 324 321 319 316 313 310 309 310 312 311 307 298 287 275 265 259 256 256 257 256 252 247 244 243 245
18 18 17 17 17 17 16 15 14 13 10 8 5 4 3 1 360 359 360 1 1 1 2 5 6 5 4 3 3 4 3 3 1 359 357 354 352 349 345 341 336 331 326 322 319 317 316 316 317 318 319 320 320 320 319 315 307 296 283 270 261 256 254 253 251 248 245 243 244
16 16 15 15 14 14 14 13 13 12 10 8 6 5 4 3 1 360 359 358 357 355 356 358 1 2 2 1 1 0 360 360 360 359 358 356 354 351 348 344 339 334 329 325 322 319 317 316 317 318 319 320 321 322 322 322 318 311 301 287 274 263 256 252 250 248 247 245 245
15 14 13 12 11 11 10 10 9 9 8 7 5 4 4 4 2 1 0 359 358 356 354 353 356 358 359 358 357 355 354 354 353 353 354 354 354 352 350 348 344 341 337 334 332 330 329 327 325 323 321 321 320 319 320 322 322 319 312 302 288 274 263 255 250 248 247 247 246
13 12 11 10 9 8 7 7 6 6 5 4 3 2 2 1 1 0 0 0 359 358 356 354 354 355 356 356 355 353 351 349 348 347 347 347 348 349 350 349 348 346 344 341 340 340 340 340 337 334 330 326 323 320 318 318 320 320 318 313 302 288 274 262 254 249 247 247 247
13 11 10 8 7 6 5 4 4 3 3 2 1 360 359 359 359 359 359 359 359 358 357 356 355 355 355 355 355 352 350 348 346 344 343 342 342 343 344 346 346 346 345 344 344 344 344 343 342 340 336 333 328 324 320 318 317 318 319 319 315 306 292 277 264 254 249 247 248
12 11 10 8 6 5 4 4 3 2 1 0 359 358 358 358 357 357 357 358 358 357 356 356 355 355 355 355 354 352 350 348 346 345 343 341 339 339 339 340 342 342 343 343 343 343 342 341 341 340 339 336 333 329 325 321 318 317 317 319 320 318 312 300 283 267 256 251 249
11 10 9 8 6 6 5 4 2 2 1 0 359 358 357 357 357 357 357 358 357 356 356 356 355 355 355 355 353 351 349 348 347 346 344 342 340 339 338 337 338 338 338 339 339 339 339 339 339 339 339 337 335 332 329 325 322 318 317 317 319 321 321 318 309 291 272 259 251
9 9 8 7 7 6 5 4 3 3 2 1 0 358 357 357 358 358 359 359 359 358 357 356 356 355 355 354 352 350 348 348 348 346 344 342 341 340 339 338 337 337 337 337 337 337 337 337 337 337 337 337 335 334 332 330 327 323 320 318 318 320 321 322 322 318 304 282 264
7 6 6 6 6 6 6 5 5 5 4 3 1 360 359 359 0 0 1 1 2 2 0 358 356 355 354 352 350 348 348 348 347 346 344 342 341 341 340 340 339 338 339 340 340 340 339 337 336 335 335 335 334 334 333 333 332 329 325 322 321 320 321 322 322 321 318 310 293
6 5 5 5 5 5 5 5 5 5 4 3 2 1 0 1 2 2 2 3 4 4 2 359 356 354 353 351 349 347 347 347 347 346 344 343 342 341 341 342 342 342 342 342 342 341 341 340 339 337 335 333 332 333 334 335 335 334 332 328 325 322 321 321 322 322 321 316 306
5 4 4 4 4 4 4 4 4 4 3 2 1 1 1 2 2 1 1 0 1 2 2 0 358 356 354 352 350 348 347 346 346 345 344 344 343 342 342 343 344 345 343 340 339 339 340 341 341 340 338 335 332 331 333 335 337 337 336 333 330 326 323 321 320 321 322 323 318
3 2 1 1 1 1 1 1 1 1 1 0 0 0 1 1 0 359 358 358 357 357 358 358 358 357 355 353 352 350 349 347 346 345 344 344 343 343 343 344 345 346 343 338 336 336 337 339 341 341 339 337 334 332 332 334 336 338 338 336 333 331 328 325 322 321 321 323 325
0 359 359 359 359 359 360 360 359 359 359 358 359 359 360 359 358 357 356 355 354 353 353 354 355 356 355 354 352 351 350 348 347 346 345 345 344 344 344 345 346 346 344 338 336 336 337 338 339 339 338 337 336 335 335 335 336 338 338 337 335 333 331 329 326 323 321 321 324
359 359 359 359 359 359 359 359 358 358 357 357 358 358 357 357 356 355 354 353 351 350 349 350 351 352 353 353 352 351 350 349 348 347 347 346 345 344 344 344 346 346 345 340 338 338 338 338 338 338 337 337 337 337 337 337 338 339 339 339 336 335 334 332 329 326 323 321 322
0 360 360 359 359 359 359 358 358 357 357 357 357 356 355 355 354 353 351 350 349 347 347 347 348 348 349 350 350 351 351 350 349 349 348 347 346 345 343 343 345 347 346 344 342 340 340 339 339 338 337 337 337 339 339 340 340 341 341 341 339 337 335 334 332 330 326 323 322
0 359 359 358 358 358 358 357 357 356 356 356 355 354 353 352 351 350 348 347 346 345 345 345 345 345 346 346 347 349 350 351 350 350 349 348 347 346 344 343 344 346 347 347 345 343 341 340 339 338 338 337 338 339 340 341 341 342 342 342 341 339 337 336 335 333 330 327 323
358 358 357 357 357 356 356 356 355 355 355 354 353 352 350 349 348 347 346 345 344 343 343 342 343 344 344 344 344 346 347 349 350 350 350 350 349 348 346 344 344 345 347 348 347 345 342 341 340 339 338 338 338 339 340 341 341 342 342 342 341 340 339 337 336 335 334 331 327
356 356 355 355 355 355 354 354 354 354 353 352 351 349 348 347 346 345 344 343 343 342 341 340 341 342 342 342 342 342 344 346 349 350 351 351 350 349 347 345 344 345 346 348 348 346 343 341 340 339 339 338 338 339 340 340 341 341 341 341 341 340 339 338 337 337 335 334 331
353 353 353 353 353 352 352 352 353 353 352 350 349 347 346 345 345 344 343 342 341 340 339 339 339 340 340 339 340 340 341 343 346 349 350 351 351 350 349 346 345 345 347 348 348 346 343 341 340 340 339 339 339 339 340 340 340 340 340 340 340 340 339 339 338 337 337 335 334
351 351 351 351 351 351 350 351 351 351 351 350 348 346 345 344 343 342 341 340 339 338 338 338 338 338 338 338 339 340 341 342 344 347 349 350 351 351 350 348 346 346 347 349 349 347 344 341 340 340 340 340 340 340 340 340 339 339 338 339 339 339 339 339 338 338 337 336 335
349 348 349 349 349 349 349 349 349 349 349 349 348 346 344 343 342 341 340 339 338 337 337 337 337 337 337 338 339 340 341 342 344 346 348 350 351 352 351 350 348 347 347 349 349 347 344 342 342 341 341 341 341 340 340 340 339 337 337 337 338 337 337 338 338 338 337 337 335